GW4674 Weather Reports


Display with metric or nautical units.
time (UTC)temp
F
wind
direction
speed
MPH
gust
MPH
rain 1hr
in
rain 24hr
in
rain mn
in
humidity
%
barometer
mb
20260905234635 68 29 13.0 16.0 0.00 0.00 0.00 81 1018.1
20260905234132 68 29 13.0 16.0 0.00 0.00 0.00 81 1018.1
20260905233632 69 29 13.0 16.0 0.00 0.00 0.00 81 1018.2
20260905233125 69 29 13.0 16.0 0.00 0.00 0.00 81 1018.0
20260905232621 69 29 13.0 16.0 0.00 0.00 0.00 81 1017.9
20260905232117 70 29 13.0 16.0 0.00 0.00 0.00 81 1017.9
20260905231617 70 29 13.0 16.0 0.00 0.00 0.00 79 1017.9
20260905231113 70 29 13.0 16.0 0.00 0.00 0.00 82 1018.0
20260905230609 71 29 13.0 16.0 0.00 0.00 0.00 80 1017.9
20260905230106 71 29 13.0 16.0 0.00 0.00 0.00 81 1017.9
20260905225600 71 29 13.0 16.0 0.00 0.00 0.00 81 1018.0
20260905225055 71 29 13.0 16.0 0.00 0.00 0.00 81 1017.8
20260905224549 71 29 13.0 16.0 0.00 0.00 0.00 79 1017.6
20260905224049 71 29 13.0 16.0 0.00 0.00 0.00 80 1017.8
20260905223547 70 29 13.0 16.0 0.00 0.00 0.00 81 1017.6
20260905223043 70 29 13.0 16.0 0.00 0.00 0.00 81 1017.8
20260905222542 70 29 13.0 16.0 0.00 0.00 0.00 80 1017.7
20260905222038 70 29 13.0 16.0 0.00 0.00 0.00 80 1017.6
20260905221534 70 29 13.0 16.0 0.00 0.00 0.00 81 1017.5
20260905221030 70 29 13.0 16.0 0.00 0.00 0.00 80 1017.7
20260905220525 71 29 13.0 16.0 0.00 0.00 0.00 78 1017.3
20260905220021 71 29 13.0 16.0 0.00 0.00 0.00 79 1017.4
20260905215516 71 29 13.0 16.0 0.00 0.00 0.00 76 1017.4
20260905215012 73 29 13.0 16.0 0.00 0.00 0.00 73 1017.5
20260905214508 73 29 13.0 16.0 0.00 0.00 0.00 72 1017.5
20260905214007 73 29 13.0 16.0 0.00 0.00 0.00 72 1017.4
20260905213503 73 29 13.0 16.0 0.00 0.00 0.00 73 1017.5
20260905213003 73 29 13.0 16.0 0.00 0.00 0.00 70 1017.5
20260905212458 73 29 13.0 16.0 0.00 0.00 0.00 68 1017.4
20260905211957 74 29 13.0 16.0 0.00 0.00 0.00 69 1017.2
20260905211453 74 29 13.0 16.0 0.00 0.00 0.00 68 1017.2
20260905210949 76 29 13.0 16.0 0.00 0.00 0.00 66 1017.1
20260905210445 77 29 13.0 16.0 0.00 0.00 0.00 64 1017.1
20260905205944 76 29 13.0 16.0 0.00 0.00 0.00 66 1017.2
20260905205439 73 29 13.0 16.0 0.00 0.00 0.00 70 1017.1
20260905204937 73 29 13.0 16.0 0.00 0.00 0.00 67 1017.0
20260905204433 74 29 13.0 16.0 0.00 0.00 0.00 69 1017.0
20260905203932 74 29 13.0 16.0 0.00 0.00 0.00 67 1016.9
20260905203428 74 29 13.0 16.0 0.00 0.00 0.00 67 1016.9
20260905202923 73 29 13.0 16.0 0.00 0.00 0.00 66 1016.9
20260905202419 74 29 13.0 16.0 0.00 0.00 0.00 66 1016.8
20260905201914 74 29 13.0 16.0 0.00 0.00 0.00 64 1017.1
20260905201409 76 29 13.0 16.0 0.00 0.00 0.00 62 1016.9
20260905200904 78 29 13.0 16.0 0.00 0.00 0.00 59 1016.9
20260905200400 79 29 13.0 16.0 0.00 0.00 0.00 62 1017.0
20260905195857 78 29 13.0 16.0 0.00 0.00 0.00 62 1017.0
20260905195353 76 29 13.0 16.0 0.00 0.00 0.00 66 1016.9
20260905194849 75 29 13.0 16.0 0.00 0.00 0.00 67 1016.9
20260905194348 76 29 13.0 16.0 0.00 0.00 0.00 63 1016.8
20260905193847 77 29 13.0 16.0 0.00 0.00 0.00 61 1017.0
20260905193342 78 29 13.0 16.0 0.00 0.00 0.00 63 1016.9
20260905192838 74 29 13.0 16.0 0.00 0.00 0.00 68 1016.9
20260905192333 75 29 13.0 16.0 0.00 0.00 0.00 64 1016.9
20260905191833 78 29 13.0 16.0 0.00 0.00 0.00 66 1016.9
20260905191332 74 29 13.0 16.0 0.00 0.00 0.00 71 1017.0
20260905190830 73 29 13.0 16.0 0.00 0.00 0.00 67 1017.1
20260905190325 75 29 13.0 16.0 0.00 0.00 0.00 66 1017.0
20260905185823 77 29 13.0 16.0 0.00 0.00 0.00 62 1017.1
20260905185319 80 29 13.0 16.0 0.00 0.00 0.00 58 1016.9
20260905184812 78 29 13.0 16.0 0.00 0.00 0.00 63 1017.0
20260905184311 74 29 13.0 16.0 0.00 0.00 0.00 66 1017.0
20260905183810 74 29 13.0 16.0 0.00 0.00 0.00 68 1017.0
20260905183306 77 29 13.0 16.0 0.00 0.00 0.00 62 1017.0
20260905182806 77 29 13.0 16.0 0.00 0.00 0.00 59 1016.9
20260905182306 78 29 13.0 16.0 0.00 0.00 0.00 61 1017.0
20260905181801 76 29 13.0 16.0 0.00 0.00 0.00 63 1017.1
20260905181300 80 29 13.0 16.0 0.00 0.00 0.00 57 1016.9
20260905180754 77 29 13.0 16.0 0.00 0.00 0.00 60 1017.1
20260905180249 78 29 13.0 16.0 0.00 0.00 0.00 59 1017.2
20260905175744 79 29 13.0 16.0 0.00 0.00 0.00 61 1017.3
20260905175239 80 29 13.0 16.0 0.00 0.00 0.00 63 1017.3
20260905174734 78 29 13.0 16.0 0.00 0.00 0.00 60 1017.2
20260905174229 78 29 13.0 16.0 0.00 0.00 0.00 61 1017.3
20260905173720 77 29 13.0 16.0 0.00 0.00 0.00 60 1017.2
20260905173215 78 29 13.0 16.0 0.00 0.00 0.00 60 1017.3
20260905172714 79 29 13.0 16.0 0.00 0.00 0.00 62 1017.3
20260905172209 79 29 13.0 16.0 0.00 0.00 0.00 60 1017.3
20260905171705 77 29 13.0 16.0 0.00 0.00 0.00 58 1017.4
20260905171200 76 29 13.0 16.0 0.00 0.00 0.00 62 1017.5
20260905170658 78 29 13.0 16.0 0.00 0.00 0.00 62 1017.5
20260905170152 78 29 13.0 16.0 0.00 0.00 0.00 66 1017.6
20260905165652 77 29 13.0 16.0 0.00 0.00 0.00 63 1017.5
20260905165147 78 29 13.0 16.0 0.00 0.00 0.00 63 1017.4
20260905164642 76 29 13.0 16.0 0.00 0.00 0.00 64 1017.5
20260905164141 75 29 13.0 16.0 0.00 0.00 0.00 68 1017.4
20260905163637 74 29 13.0 16.0 0.00 0.00 0.00 68 1017.6
20260905163134 73 29 13.0 16.0 0.00 0.00 0.00 70 1017.4
20260905162630 73 29 13.0 16.0 0.00 0.00 0.00 69 1017.5
20260905162129 75 29 13.0 16.0 0.00 0.00 0.00 68 1017.5
20260905161628 76 29 13.0 16.0 0.00 0.00 0.00 64 1017.4
20260905161126 75 29 13.0 16.0 0.00 0.00 0.00 66 1017.6
20260905160621 74 29 13.0 16.0 0.00 0.00 0.00 67 1017.6
20260905160120 74 29 13.0 16.0 0.00 0.00 0.00 66 1017.6
20260905155615 75 29 13.0 16.0 0.00 0.00 0.00 66 1017.4
20260905155114 74 29 13.0 16.0 0.00 0.00 0.00 67 1017.4
20260905154608 74 29 13.0 16.0 0.00 0.00 0.00 68 1017.5
20260905154104 74 29 13.0 16.0 0.00 0.00 0.00 70 1017.3
20260905153559 73 29 13.0 16.0 0.00 0.00 0.00 70 1017.5
20260905153054 72 29 13.0 16.0 0.00 0.00 0.00 70 1017.6
20260905152549 72 29 13.0 16.0 0.00 0.00 0.00 73 1017.7
20260905152044 73 29 13.0 16.0 0.00 0.00 0.00 76 1017.6
20260905151539 74 29 13.0 16.0 0.00 0.00 0.00 75 1017.6
20260905151035 74 29 13.0 16.0 0.00 0.00 0.00 69 1017.8
20260905150530 72 29 13.0 16.0 0.00 0.00 0.00 72 1017.6
20260905150027 72 29 13.0 16.0 0.00 0.00 0.00 71 1017.6
20260905145521 73 29 13.0 16.0 0.00 0.00 0.00 73 1017.6
20260905145021 72 29 13.0 16.0 0.00 0.00 0.00 79 1017.5
20260905144516 71 29 13.0 16.0 0.00 0.00 0.00 76 1017.7
20260905144015 71 29 13.0 16.0 0.00 0.00 0.00 78 1017.4
20260905143514 70 29 13.0 16.0 0.00 0.00 0.00 78 1017.5
20260905143009 71 29 13.0 16.0 0.00 0.00 0.00 80 1017.5
20260905142508 70 29 13.0 16.0 0.00 0.00 0.00 80 1017.4
20260905142004 71 29 13.0 16.0 0.00 0.00 0.00 81 1017.3
20260905141503 70 29 13.0 16.0 0.00 0.00 0.00 84 1017.4
20260905141000 69 29 13.0 16.0 0.00 0.00 0.00 84 1017.4
20260905140454 68 29 13.0 16.0 0.00 0.00 0.00 84 1017.6
20260905135953 68 29 13.0 16.0 0.00 0.00 0.00 85 1017.5
20260905135449 68 29 13.0 16.0 0.00 0.00 0.00 84 1017.4
20260905134944 68 29 13.0 16.0 0.00 0.00 0.00 85 1017.5
20260905134443 67 29 13.0 16.0 0.00 0.00 0.00 85 1017.4
20260905133942 67 29 13.0 16.0 0.00 0.00 0.00 87 1017.4
20260905133437 67 29 13.0 16.0 0.00 0.00 0.00 87 1017.6
20260905132932 66 29 13.0 16.0 0.00 0.00 0.00 90 1017.8
20260905132427 65 29 13.0 16.0 0.00 0.00 0.00 93 1017.8
20260905131922 65 29 13.0 16.0 0.00 0.00 0.00 93 1017.7
20260905131418 65 29 13.0 16.0 0.00 0.00 0.00 92 1017.8
20260905130912 65 29 13.0 16.0 0.00 0.00 0.00 93 1017.8
20260905130412 65 29 13.0 16.0 0.00 0.00 0.00 92 1017.7
20260905125906 65 29 13.0 16.0 0.00 0.00 0.00 92 1017.8
20260905125401 65 29 13.0 16.0 0.00 0.00 0.00 92 1017.7
20260905124857 65 29 13.0 16.0 0.00 0.00 0.00 92 1017.6
20260905124353 65 29 13.0 16.0 0.00 0.00 0.00 93 1017.6
20260905123853 65 29 13.0 16.0 0.00 0.00 0.00 92 1017.7
20260905123350 64 29 13.0 16.0 0.00 0.00 0.00 92 1017.9
20260905122850 64 29 13.0 16.0 0.00 0.00 0.00 94 1017.9
20260905122349 64 29 13.0 16.0 0.00 0.00 0.00 96 1018.0
20260905121844 63 29 13.0 16.0 0.00 0.00 0.00 97 1017.6
20260905121341 62 29 13.0 16.0 0.00 0.00 0.00 98 1017.7
20260905120839 61 29 13.0 16.0 0.00 0.00 0.00 99 1017.6
20260905120334 61 29 13.0 16.0 0.00 0.00 0.00 99 1017.8
20260905115830 60 29 13.0 16.0 0.00 0.00 0.00 99 1017.7
20260905115329 60 29 13.0 16.0 0.00 0.00 0.00 99 1017.9
20260905114829 60 29 13.0 16.0 0.00 0.00 0.00 99 1017.7
20260905114328 60 29 13.0 16.0 0.00 0.00 0.00 99 1017.6
20260905113827 59 29 13.0 16.0 0.00 0.00 0.00 99 1017.8
20260905113323 59 29 13.0 16.0 0.00 0.00 0.00 99 1017.6
20260905112819 59 29 13.0 16.0 0.00 0.00 0.00 99 1017.4
20260905112313 59 29 13.0 16.0 0.00 0.00 0.00 99 1017.2
20260905111809 59 29 13.0 16.0 0.00 0.00 0.00 98 1017.3
20260905111308 59 29 13.0 16.0 0.00 0.00 0.00 98 1017.2
20260905110803 59 29 13.0 16.0 0.00 0.00 0.00 98 1017.1
20260905110301 59 29 13.0 16.0 0.00 0.00 0.00 98 1017.1
20260905105758 59 29 13.0 16.0 0.00 0.00 0.00 98 1017.1
20260905105256 59 29 13.0 16.0 0.00 0.00 0.00 98 1017.2
20260905104751 59 29 13.0 16.0 0.00 0.00 0.00 98 1017.1
20260905104248 59 29 13.0 16.0 0.00 0.00 0.00 98 1016.9
20260905103747 59 29 13.0 16.0 0.00 0.00 0.00 98 1016.9
20260905103243 59 29 13.0 16.0 0.00 0.00 0.00 98 1017.0
20260905102738 59 29 13.0 16.0 0.00 0.00 0.00 98 1017.0
20260905102235 59 29 13.0 16.0 0.00 0.00 0.00 98 1016.8
20260905101734 59 29 13.0 16.0 0.00 0.00 0.00 98 1016.7
20260905101232 59 29 13.0 16.0 0.00 0.00 0.00 98 1016.7
20260905100728 60 29 13.0 16.0 0.00 0.00 0.00 98 1016.7
20260905100224 60 29 13.0 16.0 0.00 0.00 0.00 98 1016.8
20260905095723 60 29 13.0 16.0 0.00 0.00 0.00 98 1016.7
20260905095217 60 29 13.0 16.0 0.00 0.00 0.00 98 1016.9
20260905094712 60 29 13.0 16.0 0.00 0.00 0.00 98 1016.7
20260905094207 60 29 13.0 16.0 0.00 0.00 0.00 97 1016.8
20260905093707 60 29 13.0 16.0 0.00 0.00 0.00 97 1016.8
20260905093203 60 29 13.0 16.0 0.00 0.00 0.00 97 1016.8
20260905092658 60 29 13.0 16.0 0.00 0.00 0.00 97 1016.6
20260905092154 60 29 13.0 16.0 0.00 0.00 0.00 97 1016.8
20260905091653 60 29 13.0 16.0 0.00 0.00 0.00 97 1016.6
20260905091154 60 29 13.0 16.0 0.00 0.00 0.00 96 1016.5
20260905090653 60 29 13.0 16.0 0.00 0.00 0.00 96 1016.6
20260905090149 61 29 13.0 16.0 0.00 0.00 0.00 96 1016.5
20260905085647 61 29 13.0 16.0 0.00 0.00 0.00 95 1016.6
20260905085143 61 29 13.0 16.0 0.00 0.00 0.00 95 1016.7
20260905084642 62 29 13.0 16.0 0.00 0.00 0.00 95 1016.7
20260905084137 62 29 13.0 16.0 0.00 0.00 0.00 94 1016.7
20260905083632 63 29 13.0 16.0 0.00 0.00 0.00 92 1016.8
20260905083128 63 29 13.0 16.0 0.00 0.00 0.00 91 1016.6
20260905082624 63 29 13.0 16.0 0.00 0.00 0.00 91 1016.8
20260905082119 63 29 13.0 16.0 0.00 0.00 0.00 91 1016.6
20260905081613 64 29 13.0 16.0 0.00 0.00 0.00 90 1016.7
20260905081108 64 29 13.0 16.0 0.00 0.00 0.00 89 1016.7
20260905080608 64 29 13.0 16.0 0.00 0.00 0.00 89 1016.8
20260905080057 64 29 13.0 16.0 0.00 0.00 0.00 88 1016.7
20260905075550 64 29 13.0 16.0 0.00 0.00 0.00 89 1016.6
20260905075044 64 29 13.0 16.0 0.00 0.00 0.00 89 1016.7
20260905074544 64 29 13.0 16.0 0.00 0.00 0.00 89 1016.7
20260905074040 64 29 13.0 16.0 0.00 0.00 0.00 89 1016.7
20260905073535 64 29 13.0 16.0 0.00 0.00 0.00 88 1016.7
20260905073031 64 29 13.0 16.0 0.00 0.00 0.00 87 1016.6
20260905072530 64 29 13.0 16.0 0.00 0.00 0.00 86 1016.5
20260905072026 65 29 13.0 16.0 0.00 0.00 0.00 86 1016.7
20260905071522 65 29 13.0 16.0 0.00 0.00 0.00 86 1016.7
20260905071017 65 29 13.0 16.0 0.00 0.00 0.00 85 1016.7
20260905070512 65 29 13.0 16.0 0.00 0.00 0.00 85 1016.8
20260905070008 65 29 13.0 16.0 0.00 0.00 0.00 84 1016.9
20260905065506 65 29 13.0 16.0 0.00 0.00 0.00 84 1017.0
20260905065001 65 29 13.0 16.0 0.00 0.00 0.00 84 1016.9
20260905064455 65 29 13.0 16.0 0.00 0.00 0.00 85 1016.9
20260905063950 65 29 13.0 16.0 0.00 0.00 0.00 85 1016.8
20260905063445 65 29 13.0 16.0 0.00 0.00 0.00 85 1017.0
20260905062941 65 29 13.0 16.0 0.00 0.00 0.00 85 1017.0
20260905062441 65 29 13.0 16.0 0.00 0.00 0.00 88 1017.1
20260905061936 65 29 13.0 16.0 0.00 0.00 0.00 90 1017.1
20260905061431 65 29 13.0 16.0 0.00 0.00 0.00 83 1017.1
20260905060930 65 29 13.0 16.0 0.00 0.00 0.00 85 1017.3
20260905060426 65 29 13.0 16.0 0.00 0.00 0.00 86 1017.3
20260905055926 66 29 13.0 16.0 0.00 0.00 0.00 86 1017.2
20260905055421 65 29 13.0 16.0 0.00 0.00 0.00 85 1017.4
20260905054920 66 29 13.0 16.0 0.00 0.00 0.00 84 1017.6
20260905054416 65 29 13.0 16.0 0.00 0.00 0.00 85 1017.4
20260905053915 66 29 13.0 16.0 0.00 0.00 0.00 89 1017.6
20260905053410 66 29 13.0 16.0 0.00 0.00 0.00 83 1017.5
20260905052906 66 29 13.0 16.0 0.00 0.00 0.00 84 1017.5
20260905052406 66 29 13.0 16.0 0.00 0.00 0.00 84 1017.6
20260905051905 66 29 13.0 16.0 0.00 0.00 0.00 85 1017.7
20260905051401 65 29 13.0 16.0 0.00 0.00 0.00 89 1017.7
20260905050858 64 29 13.0 16.0 0.00 0.00 0.00 89 1017.9
20260905050354 63 29 13.0 16.0 0.00 0.00 0.00 96 1017.9
20260905045849 63 29 13.0 16.0 0.00 0.00 0.00 97 1017.8
20260905045344 63 29 13.0 16.0 0.00 0.00 0.00 98 1017.9
20260905044839 63 29 13.0 16.0 0.00 0.00 0.00 97 1018.2
20260905044334 63 29 13.0 16.0 0.00 0.00 0.00 97 1018.1
20260905043833 63 29 13.0 16.0 0.00 0.00 0.00 96 1018.0
20260905043328 63 29 13.0 16.0 0.00 0.00 0.00 96 1018.0
20260905042822 63 29 13.0 16.0 0.00 0.00 0.00 95 1018.1
20260905042316 64 29 13.0 16.0 0.00 0.00 0.00 95 1018.1
20260905041812 64 29 13.0 16.0 0.00 0.00 0.00 94 1018.0
20260905041308 64 29 13.0 16.0 0.00 0.00 0.00 94 1018.1
20260905040803 64 29 13.0 16.0 0.00 0.00 0.00 96 1018.0
20260905040301 64 29 13.0 16.0 0.00 0.00 0.00 96 1018.1
20260905035756 64 29 13.0 16.0 0.00 0.27 0.27 96 1018.1
20260905035252 64 29 13.0 16.0 0.00 0.27 0.27 96 1018.0
20260905034749 64 29 13.0 16.0 0.00 0.27 0.27 96 1018.1
20260905034249 64 29 13.0 16.0 0.00 0.27 0.27 96 1018.0
20260905033747 64 29 13.0 16.0 0.00 0.27 0.27 96 1018.1
20260905033243 64 29 13.0 16.0 0.00 0.27 0.27 96 1017.9
20260905032742 64 29 13.0 16.0 0.00 0.27 0.27 96 1018.0
20260905032238 64 29 13.0 16.0 0.00 0.27 0.27 96 1018.0
20260905031732 65 29 13.0 16.0 0.00 0.27 0.27 96 1018.0
20260905031229 65 29 13.0 16.0 0.00 0.27 0.27 96 1017.9
20260905030723 65 29 13.0 16.0 0.00 0.27 0.27 96 1018.0
20260905030218 65 29 13.0 16.0 0.00 0.27 0.27 95 1018.0
20260905025713 65 29 13.0 16.0 0.00 0.27 0.27 95 1017.9
20260905025209 65 29 13.0 16.0 0.00 0.27 0.27 94 1017.9
20260905024704 66 29 13.0 16.0 0.00 0.27 0.27 94 1017.9
20260905024200 66 29 13.0 16.0 0.00 0.27 0.27 94 1018.0
20260905023654 65 29 13.0 16.0 0.00 0.27 0.27 93 1017.9
20260905023149 65 29 13.0 16.0 0.00 0.27 0.27 93 1017.8
20260905022648 65 29 13.0 16.0 0.00 0.27 0.27 95 1018.0
20260905022144 65 29 13.0 16.0 0.00 0.27 0.27 97 1018.0
20260905021643 65 29 13.0 16.0 0.00 0.27 0.27 97 1017.9
20260905021139 65 29 13.0 16.0 0.00 0.27 0.27 98 1017.9
20260905020633 65 29 13.0 16.0 0.00 0.27 0.27 98 1017.8
20260905020129 65 29 13.0 16.0 0.00 0.27 0.27 98 1017.8
20260905015627 65 29 13.0 16.0 0.00 0.27 0.27 97 1017.9
20260905015121 66 29 13.0 16.0 0.00 0.27 0.27 97 1017.7
20260905014615 66 29 13.0 16.0 0.00 0.27 0.27 97 1017.8
20260905014111 67 29 13.0 16.0 0.00 0.27 0.27 96 1017.9
20260905013608 67 29 13.0 16.0 0.00 0.27 0.27 95 1017.8
20260905013103 67 29 13.0 16.0 0.00 0.27 0.27 96 1017.9
20260905012603 67 29 13.0 16.0 0.00 0.27 0.27 96 1018.0
20260905012100 67 29 13.0 16.0 0.00 0.27 0.27 96 1018.0
20260905011555 67 29 13.0 16.0 0.00 0.27 0.27 96 1017.9
20260905011050 68 29 13.0 16.0 0.00 0.27 0.27 96 1017.9
20260905010550 68 29 13.0 16.0 0.00 0.27 0.27 95 1017.9
20260905010047 68 29 13.0 16.0 0.00 0.27 0.27 96 1017.8
20260905005542 68 29 13.0 16.0 0.00 0.27 0.27 96 1017.9
20260905005037 68 29 13.0 16.0 0.00 0.27 0.27 96 1018.2
20260905004532 68 29 13.0 16.0 0.00 0.27 0.27 96 1018.0
20260905004027 68 29 13.0 16.0 0.00 0.27 0.27 95 1017.9
20260905003523 68 29 13.0 16.0 0.00 0.27 0.27 95 1017.9
20260905003019 68 29 13.0 16.0 0.00 0.27 0.27 94 1017.8
20260905002514 68 29 13.0 16.0 0.00 0.27 0.27 94 1017.7
20260905002014 69 29 13.0 16.0 0.00 0.27 0.27 93 1017.7
20260905001509 69 29 13.0 16.0 0.00 0.27 0.27 93 1017.8
20260905001003 69 29 13.0 16.0 0.00 0.27 0.27 92 1017.9
20260905000459 69 29 13.0 16.0 0.00 0.27 0.27 92 1017.7
20260904235954 69 29 13.0 16.0 0.00 0.27 0.27 91 1017.7
20260904235449 69 29 13.0 16.0 0.00 0.27 0.27 91 1017.8
20260904234949 69 29 13.0 16.0 0.00 0.27 0.27 90 1017.6